Harrison, AR

10:20 PM CDT on March 22, 2017 (GMT -0500)
Boone County

Weather History for KHRO - September, 2014

Change the Weather History Date:

Saturday, September 27, 2014

  Actual Average Record
Temperature  
Mean Temperature 69 °F 65 °F  
Max Temperature 81 °F 76 °F 96 °F (1953)
Min Temperature 56 °F 53 °F 32 °F (1942)
Degree Days  
Heating Degree Days 0 3  
Month to date heating degree days 33 31  
Since 1 July heating degree days 34 32  
Cooling Degree Days 4 3  
Month to date cooling degree days 148 160  
Year to date cooling degree days 1278 1371  
Growing Degree Days 18 (Base 50)    
Moisture  
Dew Point 58 °F    
Average Humidity 73    
Maximum Humidity 100    
Minimum Humidity 45    
Precipitation  
Precipitation 0.00 in 0.14 in 2.00 in (1917)
Month to date precipitation 5.15 3.81  
Year to date precipitation 31.83 32.77  
Snow  
Snow 0.00 in 0.00 in - ()
Month to date snowfall 0.0 0.0  
Since 1 July snowfall 0.0 0.0  
Since 1 September snowfall 0.0 0.0  
Snow Depth 0.00 in    
Sea Level Pressure  
Sea Level Pressure 30.13 in    
Wind  
Wind Speed 3 mph (SE)    
Max Wind Speed 10 mph    
Max Gust Speed 17 mph    
Visibility 9 miles    
Events      
T = Trace of Precipitation, MM = Missing Value Source: NWS Daily Summary

Daily Weather History Graph

Daily Weather History Graph

Search for Another Location

Airport or City:

Trip Planner

Search our weather history database for the weather conditions in past years. The results will help you decide how hot, cold, wet, or windy it might be!

Date:

Astronomy

Sep. 27, 2014 Rise Set
Actual Time 7:04 AM CDT 7:01 PM CDT
Civil Twilight 6:38 AM CDT 7:27 PM CDT
Nautical Twilight 6:08 AM CDT 7:57 PM CDT
Astronomical Twilight 5:38 AM CDT 8:27 PM CDT
Moon 10:14 AM CDT (9/27) 9:08 PM CDT (9/27)
Length of Visible Light 12h 48m
Length of Day
11h 57m
Waxing Crescent, 11% of the Moon is Illuminated
Sep 27
Waxing Crescent
Oct 1
First Quarter
Oct 8
Full
Oct 15
Last Quarter
Oct 23
New

Hourly Weather History & Observations

Time (CDT) Temp. Heat Index Dew Point Humidity Pressure Visibility Wind Dir Wind Speed Gust Speed Precip Events Conditions
12:53 AM 63.0 °F - 59.0 °F 87% 30.14 in 10.0 mi Calm Calm - N/A   Clear
1:53 AM 59.0 °F - 57.9 °F 96% 30.14 in 10.0 mi SSW 3.5 mph - N/A   Clear
2:53 AM 62.1 °F - 57.9 °F 86% 30.13 in 10.0 mi Calm Calm - N/A   Clear
3:53 AM 61.0 °F - 57.9 °F 90% 30.13 in 10.0 mi Calm Calm - N/A   Clear
4:53 AM 57.9 °F - 57.0 °F 97% 30.13 in 10.0 mi Calm Calm - N/A   Clear
5:53 AM 57.0 °F - 55.9 °F 96% 30.14 in 9.0 mi Calm Calm - N/A   Clear
6:53 AM 57.0 °F - 55.9 °F 96% 30.15 in 6.0 mi Calm Calm - N/A   Clear
7:16 AM 55.9 °F - 55.9 °F 100% 30.18 in 2.5 mi Calm Calm - N/A   Clear
7:34 AM 55.9 °F - 55.9 °F 100% 30.18 in 1.8 mi Calm Calm - N/A   Clear
7:41 AM 55.9 °F - 55.9 °F 100% 30.18 in 2.5 mi Calm Calm - N/A   Clear
7:51 AM 57.2 °F - 57.2 °F 100% 30.18 in 4.0 mi Calm Calm - N/A   Clear
7:53 AM 57.9 °F - 57.9 °F 100% 30.16 in 4.0 mi Calm Calm - N/A   Clear
8:53 AM 64.9 °F - 61.0 °F 87% 30.17 in 10.0 mi Calm Calm - N/A   Clear
9:53 AM 70.0 °F - 60.1 °F 71% 30.16 in 10.0 mi SE 3.5 mph - N/A   Clear
10:53 AM 73.9 °F - 60.1 °F 62% 30.16 in 10.0 mi ESE 4.6 mph - N/A   Clear
11:53 AM 77.0 °F - 59.0 °F 54% 30.15 in 10.0 mi Variable 5.8 mph - N/A   Clear
12:53 PM 79.0 °F - 57.9 °F 48% 30.14 in 10.0 mi SSE 9.2 mph - N/A   Clear
1:53 PM 79.0 °F - 57.9 °F 48% 30.12 in 10.0 mi ESE 8.1 mph - N/A   Clear
2:53 PM 79.0 °F - 57.9 °F 48% 30.09 in 10.0 mi Variable 5.8 mph - N/A   Clear
3:53 PM 80.6 °F 80.8 °F 57.2 °F 45% 30.11 in 10.0 mi East 5.8 mph - N/A   Clear
4:53 PM 80.1 °F 80.6 °F 57.9 °F 47% 30.06 in 10.0 mi ESE 3.5 mph - N/A   Clear
5:53 PM 79.0 °F - 57.9 °F 48% 30.06 in 10.0 mi ESE 4.6 mph - N/A   Clear
6:53 PM 75.0 °F - 59.0 °F 57% 30.06 in 10.0 mi ESE 4.6 mph - N/A   Clear
7:53 PM 69.1 °F - 60.1 °F 73% 30.08 in 10.0 mi Calm Calm - N/A   Clear
8:53 PM 66.9 °F - 60.1 °F 79% 30.09 in 10.0 mi South 3.5 mph - N/A   Clear
9:53 PM 64.0 °F - 60.1 °F 87% 30.09 in 10.0 mi SW 3.5 mph - N/A   Clear
10:53 PM 64.0 °F - 60.1 °F 87% 30.09 in 10.0 mi Calm Calm - N/A   Scattered Clouds
11:53 PM 63.0 °F - 60.1 °F 90% 30.09 in 10.0 mi West 3.5 mph - N/A   Scattered Clouds